Location: Gälforsberget
(66.6500°N, 22.4167°E)
Time: 12:18:00
(UTC+00:00)

Daily predictions for brighter satellites

Satellite Brightness Start Highest point End
(mag) Time Altitude Azimuth Time Altitude Azimuth Time Altitude Azimuth
Cosmos 2322 Rocket 2.3 18:52:00 10° SSW 18:57:28 56° SE 19:02:58 10° NE
Cosmos 2184 Rocket 4.2 18:51:05 10° SSW 18:57:30 87° WNW 19:03:53 10° NNE
Cosmos 1354 Rocket 4.1 18:52:19 10° SW 18:57:40 88° SE 19:03:02 10° NE
Cosmos 1666 Rocket 4.0 18:55:14 10° SSW 18:59:31 67° WNW 19:03:51 10° NNE
Cosmos 1633 Rocket 3.4 18:56:11 10° SSW 19:00:35 73° WNW 19:04:58 10° NNE
Cosmos 1340 Rocket 3.1 18:57:30 10° SSW 19:01:10 67° WNW 19:04:50 10° NNE
ADEOS 4.5 18:56:31 10° S 19:01:35 51° WSW 19:06:42 10° NNW
Cosmos 1869 Rocket 3.9 18:58:17 10° S 19:02:31 48° E 19:06:48 10° NNE
Cosmos 2242 Rocket 3.7 18:58:35 10° NNW 19:03:09 85° ENE 19:07:40 10° SSE
SL-08 R/B 3.6 18:59:41 10° NNE 19:04:25 49° ESE 19:09:10 10° S
Terra 2.8 19:00:01 10° S 19:04:33 47° W 19:09:07 10° NNW
ATLAS 5 CENTAUR R/B 1.4 19:02:05 10° SW 19:05:08 41° SSE 19:08:41 10° E
SL-16 R/B 2.2 18:59:39 10° SW 19:05:20 76° SE 19:11:02 10° NE
Cosmos 1503 Rocket 4.4 19:00:49 10° SW 19:06:12 75° NW 19:11:35 10° NE
Cosmos 2297 3.9 19:01:31 10° WNW 19:07:19 76° NNE 19:13:05 10° ESE
Cosmos 2292 Rocket 4.5 19:00:50 10° NNW 19:07:26 65° ENE 19:12:39 10° SSE
Cosmos 1025 Rocket 3.2 19:03:50 10° NNW 19:08:03 57° ENE 19:12:14 10° SE
CZ-4 R/B 3.5 19:06:29 10° SSW 19:09:39 25° W 19:12:47 10° NW
Cosmos 1898 Rocket 3.6 19:05:28 10° SSW 19:10:36 59° ESE 19:15:43 10° NE
Cosmos 2237 Rocket 3.7 19:07:13 10° SE 19:10:43 17° E 19:14:14 10° ENE
COSMOS 2455 3.0 19:04:57 10° W 19:11:02 86° N 19:17:06 10° E
Okean O Rocket 2.2 19:09:08 10° S 19:13:25 56° WSW 19:17:44 10° NNW
Cosmos 2341 Rocket 4.1 19:07:36 10° S 19:13:44 59° E 19:19:57 10° NNE
Cosmos 2322 4.5 19:09:02 10° S 19:13:57 30° ESE 19:18:53 10° NE
ASTEX 1 3.4 19:12:53 10° SSE 19:17:46 74° ENE 19:22:42 10° N
USA 281 4.2 19:12:48 10° ENE 19:19:02 47° N 19:25:16 10° WNW
ALOS 2 4.2 19:15:58 10° E 19:19:34 25° NE 19:23:11 10° NNW
Cosmos 2333 4.2 19:14:39 10° SSW 19:20:08 59° SE 19:25:40 10° NE
CZ-4B R/B 2.8 19:17:51 10° SSE 19:21:26 71° WSW 19:24:55 10° NNW
Cosmos 372 Rocket 4.0 19:16:13 10° SSW 19:21:27 76° SE 19:26:42 10° NE
Cosmos 1975 Rocket 4.1 19:19:12 10° NNW 19:23:19 34° NE 19:27:24 10° ESE
Meteor 2-21 Rocket 4.5 19:17:31 10° NNW 19:23:39 85° ENE 19:29:48 10° SSE
Cosmos 2219 Rocket 2.3 19:20:35 10° SSW 19:26:00 54° SE 19:31:29 10° NE
Cosmos 990 Rocket 4.3 19:22:47 10° SW 19:27:57 74° NW 19:33:07 10° NE
SPOT 3 Rocket 3.8 19:22:48 10° SSE 19:28:01 75° WSW 19:33:14 10° NNW
ARIANE 5 R/B 3.9 19:25:59 10° ESE 19:29:45 30° NE 19:33:35 10° NNW
USA 234 3.9 19:24:31 10° E 19:30:22 33° SSE 19:36:12 10° SW
Cosmos 1400 Rocket 3.7 19:28:38 10° SSE 19:31:38 25° E 19:34:40 10° NE
Cosmos 1937 Rocket 3.5 19:26:56 10° SSW 19:32:10 63° ESE 19:37:24 10° NE
Cosmos 2369 Rocket 2.2 19:28:00 10° NW 19:33:40 90° SSW 19:39:12 10° SE
NOSS 3-1 (A) 3.6 19:30:08 10° W 19:35:51 67° S 19:43:12 10° ESE
Cosmos 1727 Rocket 4.2 19:30:05 10° NNW 19:36:30 85° WSW 19:42:52 10° SSE
USA 186 3.3 19:36:03 10° SSW 19:37:44 20° W 19:39:29 10° NW
Cosmos 1674 Rocket 3.5 19:34:07 10° NNW 19:38:26 86° WSW 19:42:45 10° SSE
Cosmos 1656 4.2 19:33:13 10° WNW 19:38:35 57° N 19:43:58 10° E
Cosmos 2263 4.2 19:34:02 10° NW 19:39:42 86° NE 19:45:17 10° SE
Cosmos 371 Rocket 4.2 19:35:26 10° NW 19:40:06 45° NNE 19:44:45 10° E
SKYMED 3 4.3 19:37:00 10° NNE 19:40:56 90° ESE 19:44:50 10° SSW
SL-8 Rocket 4.0 19:35:05 10° S 19:41:21 78° ESE 19:47:41 10° NNE
Cosmos 1812 3.1 19:41:33 12° E 19:41:33 12° E 19:42:11 10° ENE
Cosmos 2278 Rocket 3.4 19:36:23 10° NW 19:41:32 36° WSW 19:46:39 10° S
COSMOS 2428 3.2 19:38:16 10° S 19:43:29 37° ESE 19:48:44 10° NE
Cosmos 1953 4.0 19:42:03 10° WSW 19:45:21 33° WNW 19:48:42 10° N
USA 245 4.4 19:41:40 10° S 19:45:49 55° W 19:50:52 10° NNW
Cosmos 2221 Rocket 3.6 19:44:14 10° NNW 19:48:40 81° ENE 19:52:49 12° SSE
Geosat 4.0 19:44:28 10° NE 19:49:28 61° SE 19:54:26 10° SSW
Cosmos 1697 Rocket 3.4 19:45:25 10° W 19:51:01 56° N 19:56:36 10° ENE
Cosmos 2366 rocket 4.0 19:45:09 10° S 19:51:19 81° ESE 19:57:29 10° NNE
Ariane Rocket 3.3 19:47:25 10° S 19:52:26 64° WSW 19:57:29 10° NNW
Helios 1B rocket 2.3 19:49:49 13° SE 19:52:46 56° ENE 19:56:14 10° NNW
Cosmos 2369 4.2 19:47:35 10° WSW 19:53:13 65° NNW 19:58:54 10° ENE
Cosmos 1602 2.4 19:51:04 10° NNW 19:53:30 77° ENE 19:55:14 17° SSE
Cosmos 1346 Rocket 2.7 19:50:17 10° NNW 19:53:56 73° WSW 19:57:18 12° SSE
Cosmos 2333 Rocket 2.3 19:48:55 10° WSW 19:54:37 85° NNW 20:00:20 10° ENE
Helios 1A 4.4 19:51:49 10° NE 19:54:52 20° E 19:57:11 13° SE
SWAS 4.3 19:50:51 10° WNW 19:54:56 90° SSW 19:58:37 13° ESE
Cosmos 1378 Rocket 4.2 19:54:01 10° NNW 19:58:21 53° W 20:02:38 10° S
USA 32 4.1 19:56:23 10° S 20:01:38 88° E 20:06:55 10° NNE
Cosmos 2058 3.6 19:59:34 10° NNW 20:03:21 41° ENE 20:06:28 14° SE
CZ-2C R/B 3.4 20:00:59 10° S 20:03:44 35° W 20:06:28 10° NNW
Cosmos 1656 Rocket 4.1 19:58:56 10° NW 20:04:12 52° SW 20:08:57 13° SSE
ARIANE 6 FM1 Upper Stage 3.3 20:01:37 10° SW 20:05:11 31° SSE 20:08:44 10° E
Helios 1A Rocket 4.1 20:03:09 10° NNE 20:06:11 36° NW 20:09:11 10° WSW
Cosmos 1980 Rocket 2.9 20:00:45 10° W 20:06:22 57° N 20:12:01 10° ENE
YAOGAN 11 4.0 20:02:22 10° NNE 20:06:38 88° ESE 20:10:53 10° SSW
Cosmos 1943 Rocket 3.9 20:02:07 10° NW 20:06:40 25° WSW 20:11:12 10° SSW
Cosmos 407 Rocket 3.9 20:03:58 10° NW 20:09:10 61° NE 20:14:10 11° ESE
Cosmos 1933 Rocket 4.3 20:05:54 10° SW 20:10:15 57° WNW 20:14:38 10° NNE
CSL-04 DEB 4.0 20:10:05 16° SSE 20:12:47 83° ENE 20:16:17 10° NNW
Cosmos 2123 Rocket 4.1 20:06:53 10° NNW 20:13:09 82° WSW 20:19:09 11° S
Cosmos 1862 3.6 20:09:38 10° NNW 20:13:11 46° ENE 20:15:49 16° SE
USA 59 Rocket 1.5 20:13:29 10° WSW 20:15:23 15° SW 20:17:17 11° S
SJ 16-02 2.3 20:11:46 10° NW 20:15:54 43° NNE 20:20:00 10° ESE
Cosmos 1174 3.7 20:12:26 10° WNW 20:16:22 60° SSW 20:18:54 16° SE
Cosmos 2218 Rocket 4.1 20:10:37 10° SSW 20:16:47 84° WNW 20:23:00 10° NNE
Dummy Sat-02 4.5 20:13:41 11° S 20:17:11 80° E 20:20:48 10° N
Cosmos 405 Rocket 2.1 20:15:29 10° NNW 20:18:30 71° ENE 20:20:26 20° SSE
SL-16 R/B 3.8 20:16:16 13° SE 20:18:41 17° E 20:22:09 10° ENE
Meteor 2-15 4.5 20:14:46 10° SSW 20:20:52 88° WNW 20:27:02 10° NNE
Meteor 2-15 Rocket 4.4 20:15:38 10° S 20:21:42 79° ESE 20:27:50 10° NNE
Cosmos 1818 3.6 20:17:42 10° W 20:23:10 76° S 20:28:39 10° E
Cosmos 1733 Rocket 3.0 20:19:27 10° SSW 20:23:49 86° ESE 20:28:15 10° NNE
SeaSat 1 3.3 20:19:54 13° S 20:24:00 41° WSW 20:28:40 10° NW
Cosmos 1140 Rocket 3.5 20:19:24 10° NW 20:24:38 90° S 20:28:51 16° SE
Cosmos 1934 Rocket 4.3 20:19:16 12° SSE 20:24:50 52° E 20:30:51 10° NNE
SME Rocket 4.4 20:20:31 10° NNE 20:25:42 50° ESE 20:33:28 10° S
Aureole 1 Rocket 3.5 20:23:20 10° WSW 20:26:14 43° NNW 20:29:10 10° NE
CZ-2C R/B 3.8 20:21:48 10° ESE 20:26:52 38° NE 20:31:53 10° NNW
NOSS 3-4 (A) 4.3 20:23:13 11° S 20:27:26 24° SE 20:32:13 10° ENE
NOSS 3-4 (C) 4.3 20:23:46 11° S 20:27:56 24° SE 20:32:45 10° ENE
Cosmos 921 Rocket 3.2 20:23:41 10° NW 20:28:11 70° NE 20:31:45 16° SE
Cosmos 2278 4.1 20:23:22 10° WSW 20:29:03 71° NNW 20:34:48 10° ENE
ATLAS 3B R/B 3.0 20:22:08 10° WSW 20:29:57 70° SSE 20:37:44 10° E
Cosmos 1821 Rocket 4.1 20:24:58 10° SSW 20:31:16 87° WNW 20:37:41 10° NNE
USA 229 DEB 3.7 20:25:09 10° WSW 20:31:40 68° S 20:39:07 10° E
USA 229 3.7 20:25:13 10° WSW 20:31:44 68° S 20:39:12 10° E
Cosmos 2360 Rocket 2.4 20:27:47 10° WSW 20:33:28 78° NNW 20:39:11 10° ENE
Cosmos 1536 Rocket 4.4 20:30:00 10° NNW 20:34:06 39° ENE 20:37:24 14° ESE
NOSS 3-1 (C) 4.1 20:29:19 10° WNW 20:35:13 50° SSW 20:41:26 15° SE
Cosmos 2239 Rocket 4.5 20:30:02 10° S 20:36:12 77° ESE 20:42:28 10° NNE
Cosmos 2322 Rocket 2.5 20:35:51 10° WSW 20:41:30 73° NNW 20:47:09 10° ENE
Cosmos 1315 Rocket 4.1 20:40:28 17° SE 20:42:09 23° E 20:45:09 10° NE
SL-08 R/B 4.2 20:37:26 10° NNE 20:42:10 54° WNW 20:46:56 10° SW
Cosmos 1300 Rocket 4.0 20:40:20 18° SSE 20:43:06 42° E 20:47:10 10° NNE
Terra 4.4 20:40:43 10° WSW 20:43:15 14° WNW 20:45:48 10° NW
Cosmos 1025 Rocket 4.2 20:41:29 10° NNW 20:45:23 36° W 20:49:16 10° SSW
SAR-Lupe-2 3.7 20:43:09 20° SE 20:45:23 62° ENE 20:48:50 10° NNW
ATLAS 5 CENTAUR R/B 1.3 20:43:32 10° W 20:46:50 49° S 20:50:26 12° ESE
SL-16 R/B 2.8 20:44:02 10° W 20:49:42 63° NNW 20:55:22 10° ENE
Okean O Rocket 4.1 20:47:48 10° WSW 20:50:33 16° W 20:53:17 10° NW
Cosmos 2297 4.1 20:45:49 10° NW 20:51:24 53° SW 20:55:35 18° SSE
Cosmos 1605 Rocket 4.3 20:48:09 17° SSE 20:52:42 50° E 20:58:34 10° NNE
Cosmos 1898 Rocket 4.1 20:47:32 10° WSW 20:52:42 60° NW 20:57:52 10° NE
Cosmos 1269 Rocket 4.1 20:47:43 10° NW 20:53:00 73° SW 20:56:53 19° SSE
Cosmos 2237 Rocket 2.5 20:48:10 10° SSW 20:53:34 46° ESE 20:59:00 10° NE
Cosmos 1980 3.9 20:48:58 10° SSW 20:54:22 48° SE 20:59:47 10° NE
ALOS 2 2.7 20:52:17 19° SE 20:55:24 71° ENE 20:59:49 10° NNW
RESURS DK-1 3.5 20:54:55 20° SE 20:55:59 23° ESE 20:59:09 10° ENE
Cosmos 1125 Rocket 3.8 20:51:21 12° S 20:56:01 49° ESE 21:01:06 10° NE
Cosmos 1190 Rocket 4.4 20:51:08 10° NW 20:56:26 65° NE 21:01:28 11° ESE
COSMOS 2455 2.9 20:50:59 10° WNW 20:57:00 69° SSW 21:02:10 14° SE
Cosmos 2322 3.7 20:51:46 10° SW 20:57:30 75° SE 21:03:15 10° NE
Cosmos 1975 Rocket 3.2 20:56:57 10° NNW 21:01:25 72° WSW 21:04:32 19° S
USA 281 3.7 20:56:31 10° ESE 21:02:58 61° NNE 21:09:26 10° NW
Cosmos 2333 4.5 20:58:43 10° WSW 21:04:20 72° NNW 21:10:00 10° ENE
Cosmos 304 Rocket 3.7 21:00:53 10° NW 21:05:41 87° NE 21:09:14 18° SE
ARIANE 5 R/B 2.5 21:02:50 21° SSE 21:05:45 89° WSW 21:10:07 10° NNW
Cosmos 807 3.9 21:03:36 10° NNW 21:06:32 84° E 21:07:54 28° SSE
Cosmos 1400 Rocket 2.8 21:03:07 10° SSW 21:06:43 69° WNW 21:10:21 10° NNE
Cosmos 2219 Rocket 2.4 21:04:18 10° WSW 21:09:54 75° NNW 21:15:33 10° ENE
Cosmos 1812 2.0 21:09:39 29° WSW 21:10:04 35° WNW 21:11:41 10° N
Cosmos 1937 Rocket 4.2 21:08:58 10° WSW 21:14:13 58° NNW 21:19:27 10° NE
USA 234 3.7 21:08:31 10° ESE 21:14:36 39° S 21:20:41 10° WSW
MetOp-A 4.1 21:13:30 19° SE 21:17:03 73° ENE 21:22:11 10° NNW
Cosmos 2369 Rocket 3.0 21:12:09 10° NW 21:17:19 39° WSW 21:20:57 18° S
Cosmos 2251 Rocket 3.6 21:13:15 10° NW 21:18:36 78° NE 21:23:05 15° SE
Cosmos 1743 4.0 21:17:07 10° N 21:19:42 24° NE 21:21:43 13° ESE
Cosmos 371 Rocket 3.3 21:15:51 10° NW 21:20:43 85° SW 21:24:08 20° SE
Cosmos 1656 3.6 21:17:09 10° NW 21:22:37 89° NE 21:27:31 13° SE
Cosmos 1908 Rocket 3.6 21:22:14 15° SSW 21:25:53 81° WNW 21:30:15 10° NNE
Helios 1B rocket 3.4 21:23:49 16° SSW 21:26:01 31° W 21:29:13 10° NNW
Cosmos 2360 4.2 21:20:19 10° WNW 21:26:04 89° NE 21:31:27 12° SE
NOSS 3-1 (A) 4.0 21:20:20 10° WNW 21:26:17 50° SSW 21:32:38 15° SE
COSMOS 2428 2.7 21:21:33 10° SW 21:27:19 86° SE 21:33:06 10° NE
Geosat 4.4 21:22:24 10° NE 21:27:23 67° NNW 21:32:22 10° WSW
Cosmos 676 Rocket 4.3 21:22:54 10° NW 21:28:15 68° NE 21:33:19 11° ESE
Helios 1A 2.8 21:26:08 10° NNE 21:30:11 79° ESE 21:32:54 20° SSW
NOSS 0 Rocket 3.9 21:24:11 10° SW 21:30:24 72° SE 21:36:37 10° ENE
Cosmos 1954 Rocket 4.1 21:27:34 10° NW 21:32:54 79° NE 21:37:20 15° SE
Cosmos 1782 Rocket 3.5 21:31:27 21° S 21:34:20 78° ESE 21:38:40 10° NNE
Cosmos 1697 Rocket 3.0 21:29:54 10° WNW 21:35:35 71° NNE 21:41:15 10° ESE
Cosmos 1869 3.0 21:33:22 22° SSW 21:35:35 86° WNW 21:39:11 10° NNE
Cosmos 2369 4.4 21:32:27 10° WNW 21:38:03 57° N 21:43:41 10° E
Cosmos 2333 Rocket 2.9 21:33:46 10° W 21:39:23 59° N 21:45:00 10° ENE
Cosmos 2058 3.4 21:35:42 10° NNW 21:39:31 47° W 21:41:48 22° SSW
Spot 4 4.1 21:37:28 21° S 21:40:31 59° WSW 21:45:15 10° NNW
Cosmos 968 Rocket 3.9 21:35:53 10° NW 21:41:01 61° NE 21:46:12 10° ESE
ARIANE 6 FM1 Upper Stage 2.8 21:39:48 10° WSW 21:43:39 43° S 21:47:27 10° ESE
SL-19 R/B 4.5 21:43:18 21° ESE 21:44:30 34° NE 21:46:53 10° NNW
Cosmos 1862 4.1 21:44:36 10° NNW 21:47:59 37° W 21:49:56 20° SSW
DNEPR-1 R/B 4.0 21:45:57 13° SW 21:49:27 42° SSE 21:53:59 10° ENE
CZ-2C R/B 3.8 21:45:46 10° NNE 21:50:13 56° ESE 21:52:43 24° S
Cosmos 1980 Rocket 2.7 21:45:22 10° WNW 21:51:03 64° NNE 21:56:44 10° E
Cosmos 405 Rocket 4.2 21:48:55 10° NW 21:51:08 19° W 21:52:34 14° SW
Cosmos 407 Rocket 3.7 21:46:03 10° NW 21:51:09 56° WSW 21:54:15 23° S
ACS3 Solar Sail 3.7 21:47:37 10° NNE 21:51:30 18° ENE 21:55:25 10° ESE
SJ 16-02 1.2 21:49:58 10° NW 21:54:17 73° SW 21:56:47 24° SSE
Meteor 2-3 Rocket 3.7 21:54:07 10° NNW 21:59:48 79° WSW 22:03:35 22° SSE
SL-16 R/B 2.6 21:58:05 21° S 22:01:35 46° ESE 22:06:59 10° NE
Cosmos 2151 4.4 22:01:21 10° NNW 22:05:10 32° NE 22:08:56 10° ESE
Cosmos 921 Rocket 3.9 22:01:58 10° NW 22:06:06 37° WSW 22:08:19 22° SSW
Cosmos 1818 3.7 22:01:10 10° WNW 22:06:30 54° SSW 22:11:03 14° SE
CZ-2C R/B 2.7 22:02:51 21° SSE 22:06:46 88° WSW 22:12:18 10° NNW
Cosmos 2298 Rocket 4.2 22:03:45 21° SSW 22:07:14 57° ESE 22:12:28 10° NE
Cosmos 1934 Rocket 4.5 22:03:52 10° SW 22:10:06 61° WNW 22:16:17 10° NNE
Cosmos 292 Rocket 4.0 22:07:03 10° NW 22:11:53 70° NE 22:16:42 10° SE
Cosmos 1536 Rocket 3.8 22:07:47 10° NNW 22:12:02 57° W 22:14:24 25° S
Cosmos 2151 Rocket 4.0 22:09:44 24° SSE 22:12:04 49° E 22:16:20 10° NNE
Cosmos 2278 4.5 22:08:11 10° WNW 22:13:48 56° N 22:19:26 10° E
NOSS 3-4 (A) 3.5 22:11:43 10° SW 22:17:06 50° SSE 22:23:19 10° E
Cosmos 1315 Rocket 2.6 22:15:09 24° SSW 22:17:20 83° WNW 22:21:09 10° NNE
NOSS 3-4 (C) 3.5 22:12:12 10° SW 22:17:36 50° SSE 22:23:51 10° E
Cosmos 2360 Rocket 3.0 22:12:24 10° W 22:18:00 56° N 22:23:37 10° ENE
Cosmos 1356 Rocket 3.3 22:17:59 25° SSW 22:20:19 85° ESE 22:24:24 10° NNE
ATLAS 3B R/B 3.0 22:12:42 10° W 22:20:34 71° SSW 22:28:14 10° ESE
Cosmos 1300 Rocket 4.2 22:17:12 14° SW 22:20:43 51° WNW 22:24:57 10° NNE
USA 229 DEB 3.8 22:15:34 10° W 22:22:19 65° SSW 22:29:59 10° ESE
SME Rocket 4.4 22:17:21 10° NNE 22:22:20 62° NW 22:29:48 10° SW
USA 229 3.8 22:15:38 10° W 22:22:23 65° SSW 22:30:03 10° ESE
Okean 2 Rocket 3.6 22:20:17 24° SSE 22:22:39 49° E 22:26:57 10° NNE
Cosmos 2285 Rocket 4.0 22:19:17 16° SSW 22:24:32 74° SE 22:30:52 10° NE
Cosmos 2322 Rocket 3.0 22:20:34 10° W 22:26:07 56° N 22:31:40 10° ENE
ATLAS 5 CENTAUR R/B 2.0 22:25:14 10° W 22:28:30 31° SSW 22:29:34 27° S
Cosmos 1626 Rocket 4.1 22:27:15 10° NNW 22:31:31 55° ENE 22:34:45 17° SE
ALOS 2 3.7 22:29:40 19° SW 22:32:07 33° W 22:36:08 10° NNW
PSLV R/B 3.5 22:28:19 10° NNE 22:32:37 71° ESE 22:34:56 26° S
RESURS DK-1 2.2 22:30:06 19° SW 22:32:50 69° SE 22:36:48 10° ENE
Cosmos 1892 Rocket 3.6 22:28:42 10° NNW 22:33:11 79° WSW 22:35:45 25° S
SL-16 R/B 2.9 22:28:50 10° WNW 22:34:28 58° N 22:40:06 10° E
Cosmos 1741 Rocket 4.2 22:29:20 10° NW 22:34:38 77° NE 22:39:58 10° SE
Cosmos 332 Rocket 3.7 22:30:45 10° NW 22:35:38 75° SW 22:39:05 19° SSE
Cosmos 2237 Rocket 2.3 22:31:41 10° WSW 22:37:25 83° NNW 22:43:11 10° ENE
Cosmos 1459 Rocket 4.1 22:33:28 21° S 22:37:54 76° ESE 22:44:15 10° NNE
Cosmos 1125 Rocket 3.8 22:32:44 10° WSW 22:37:59 68° NW 22:43:16 10° NE
Cosmos 1605 Rocket 4.3 22:32:45 14° SW 22:38:03 62° WNW 22:44:10 10° NNE
Cosmos 1980 3.8 22:32:35 10° WSW 22:38:16 80° NNW 22:43:58 10° ENE
Cosmos 1190 Rocket 4.3 22:33:17 10° NW 22:38:27 53° WSW 22:41:38 23° S
Tsikada Rocket 4.0 22:34:11 10° NNW 22:40:36 80° WSW 22:45:05 21° S
Cosmos 2322 4.2 22:36:12 10° W 22:41:55 64° NNW 22:47:39 10° ENE
Sich 1 Rocket 3.9 22:39:45 24° SSE 22:42:11 56° E 22:46:32 10° NNE
COSMOS 2455 3.6 22:36:58 10° WNW 22:42:17 34° SW 22:45:15 22° S
TSX-5 3.7 22:38:07 10° SW 22:42:34 78° SSE 22:46:16 10° ENE
ARIANE 5 R/B 4.1 22:40:11 16° SW 22:42:38 25° W 22:46:14 10° NNW
Cosmos 2228 4.3 22:41:36 17° SE 22:44:04 30° E 22:47:46 10° NNE
Cosmos 2016 Rocket 4.2 22:42:33 21° S 22:46:58 65° E 22:53:16 10° NNE
USA 281 3.2 22:41:15 12° SE 22:47:27 76° SW 22:54:05 10° NW
Okean 1 Rocket 3.2 22:45:08 25° S 22:47:30 64° ESE 22:51:48 10° NNE
CZ-2C R/B 3.1 22:47:49 10° NNE 22:52:40 62° ESE 22:55:50 23° S
Cosmos 1743 2.2 22:49:56 10° NNW 22:52:58 62° WSW 22:54:00 36° S
Cosmos 2219 Rocket 2.9 22:48:53 10° W 22:54:25 56° N 22:59:58 10° ENE
Cosmos 44 4.2 22:51:59 23° S 22:54:33 37° SE 22:59:28 10° ENE
ARGOS Delta rocket 3.6 22:51:48 10° NNE 22:56:13 82° ESE 22:58:50 24° SSW
Cosmos 2150 Rocket 4.0 22:54:10 15° SW 22:58:26 87° NW 23:03:42 10° NE
USA 234 3.9 22:53:04 10° SE 22:58:50 32° SSW 23:04:38 10° W
Cosmos 2369 Rocket 4.2 22:57:19 10° WNW 22:59:57 14° W 23:02:35 10° SW
Cosmos 2173 Rocket 3.9 22:55:45 20° SSW 23:00:05 86° WNW 23:06:15 10° NNE
Cosmos 371 Rocket 4.4 22:56:21 10° NW 23:00:28 29° WSW 23:02:35 21° SSW
Cosmos 2251 Rocket 4.1 22:55:38 10° NW 23:00:35 41° WSW 23:03:27 22° S
Meteor 2-1 Rocket 4.4 22:57:54 21° S 23:01:54 74° ESE 23:07:44 10° NNE
SL-16 R/B 4.4 22:56:56 10° E 23:02:25 33° NNE 23:07:55 10° NNW
Cosmos 1805 4.3 22:59:56 10° N 23:02:58 33° ENE 23:06:00 10° SE
Helios 1A 4.5 23:01:04 10° NNE 23:04:36 31° NW 23:08:08 10° WSW
Cosmos 2100 Rocket 4.0 23:00:25 20° SSW 23:04:53 81° WNW 23:11:08 10° NNE
Cosmos 1656 4.2 23:00:54 10° NW 23:05:55 39° WSW 23:08:53 22° S
Cosmos 1455 Rocket 3.4 23:07:03 23° S 23:09:39 59° E 23:14:01 10° NNE
Cosmos 676 Rocket 4.3 23:05:04 10° NW 23:10:12 49° WSW 23:13:29 21° S
Cosmos 1758 Rocket 3.5 23:07:32 10° NNW 23:11:52 88° ENE 23:14:46 20° SSE
COSMOS 2428 3.3 23:06:15 10° W 23:11:57 60° NNW 23:17:39 10° ENE
Cosmos 1782 3.3 23:13:49 23° SSE 23:15:36 42° E 23:18:58 10° NNE
SL-19 R/B 4.2 23:15:36 29° WSW 23:15:50 30° WSW 23:18:10 10° NW
NOSS 0 Rocket 4.2 23:10:46 10° W 23:17:02 71° NNW 23:23:16 10° ENE
Cosmos 2084 Rocket 3.7 23:15:20 20° SW 23:17:46 43° SSE 23:21:45 10° E
Cosmos 1697 Rocket 2.7 23:14:01 10° NW 23:19:35 60° SW 23:24:53 11° SSE
ARIANE 6 FM1 Upper Stage 3.1 23:18:29 10° W 23:22:10 35° SSW 23:25:47 10° SE
Cosmos 2369 3.8 23:17:01 10° WNW 23:22:43 82° NNE 23:28:27 10° ESE
Cosmos 968 Rocket 3.6 23:17:44 10° NW 23:22:48 56° WSW 23:26:36 18° SSE
Cosmos 2333 Rocket 2.7 23:18:39 10° WNW 23:24:19 65° NNE 23:29:58 10° E
Cosmos 1943 3.4 23:21:35 20° SSW 23:25:26 60° SE 23:31:02 10° NE
DELTA 2 DEB (DPAF) 3.8 23:22:15 10° NNE 23:25:51 60° ESE 23:27:44 25° S
Cosmos 1850 Rocket 4.0 23:21:44 10° NW 23:26:57 67° SW 23:31:36 13° SSE
Meteor 1-25 Rocket 4.3 23:23:57 10° NNW 23:29:51 87° ENE 23:35:21 12° SSE
MOZ.5/SAFIR/RUBIN 5/SL-8 4.4 23:25:33 10° SE 23:30:09 56° ENE 23:34:44 10° NNW
SJ 16-02 2.8 23:28:32 10° NW 23:31:47 21° WSW 23:33:16 18° SW
Cosmos 1980 Rocket 2.2 23:29:35 10° NW 23:35:17 75° SW 23:40:59 10° SE
ACS3 Solar Sail 2.4 23:29:38 10° NNE 23:35:23 49° E 23:40:25 14° SSE
DNEPR-1 R/B 3.7 23:31:54 10° WSW 23:36:17 69° S 23:41:23 10° E
Aureole 3 Rocket 3.5 23:34:50 21° S 23:37:36 65° E 23:43:15 10° NNE
Okean 1-7 Rocket 3.7 23:35:48 10° NNW 23:40:12 73° ENE 23:44:15 12° SSE
Cosmos 2151 2.9 23:38:07 10° NNW 23:42:18 71° WSW 23:45:06 20° S
Cosmos 1825 Rocket 3.8 23:38:03 10° NNW 23:42:23 67° ENE 23:46:41 10° SSE
Geosat FO 3.7 23:39:57 10° NE 23:42:39 80° SE 23:43:47 31° SW
Cosmos 1602 Rocket 3.5 23:39:42 10° NNW 23:44:05 82° WSW 23:47:22 17° SSE
SL-16 R/B 2.3 23:39:53 11° WSW 23:45:29 83° NNW 23:51:14 10° ENE
CZ-2C R/B 3.8 23:44:18 17° SW 23:47:40 31° W 23:52:32 10° NNW
Cosmos 1802 Rocket 4.2 23:43:35 18° SSW 23:48:30 68° WNW 23:54:48 10° NNE
Cosmos 2298 Rocket 4.5 23:44:19 10° WSW 23:49:36 62° NW 23:54:54 10° NE
Cosmos 2151 Rocket 4.3 23:46:57 17° SW 23:50:10 46° WNW 23:54:25 10° NNE
Cosmos 292 Rocket 4.2 23:47:13 10° NW 23:51:47 44° WSW 23:55:01 18° S
Cosmos 1725 Rocket 4.2 23:48:08 18° SSW 23:53:03 68° WNW 23:59:23 10° NNE
Landsat 5 3.5 23:51:22 10° NNE 23:55:30 73° WNW 23:58:19 20° SW
